STARLINK-2326 (47870 NORAD) Tracking and Keplerian Element Data

This shows tracking and keplerian element data for the satellite.

Feedback or suggestion? Click here.




ElementValue
Catalog47870
NameSTARLINK-2326
Epoch Orbit175
Epoch Day170.58334491
Epoch Year2021
RAAN106.4199
Inclination53.0528
Eccentricity0.0001936
Argument of Perigee78.9881
Mean Anonmoly48.7185
Mean Motion15.06388093
Decay Rate1.458E-05
L11 47870U 21021L 21170.58334491 .00001458 00000-0 11681-3 0 9998
L22 47870 53.0528 106.4199 0001936 78.9881 48.7185 15.06388093 1750

Live tracking and technical data element details for STARLINK-2326 (NORAD 47870). STARLINK-2326 can be tracked NOW for your location showing map with azimuth and elevation plus other details from your city location.

Track the satellite on the map from your city or location and see movement details for azimuth, elevation, latitude, longitude, range, height, and movement on the map or in text.







IsCatalogInMostPopularTable: catalog: 47870, numindb: 47
Update: records affected: 1



GetName: 47870 STARLINK-2326

Hit Count: updated at: Mon, 21 Jun 2021 03:03:43 GMT